This is the latest recevied weather packets stored in our database for station/object AC1IX. If no packets are shown the sender has not sent any weather packets the latest 10 day(s).
| Time | Temp. | Humidity | Pressure | Rain* | Wind** | Luminosity | Snow |
|---|---|---|---|---|---|---|---|
| 1777710617 | 6.11° C | 99% | 1011.9 hPa | 0 mm | - | 0 W/m² | - |
| 1777710314 | 6.11° C | 99% | 1012.1 hPa | 1.27 mm | - | 0 W/m² | - |
| 1777710011 | 6.11° C | 99% | 1011.9 hPa | 1.27 mm | - | 0 W/m² | - |
| 1777709709 | 6.11° C | 99% | 1012 hPa | 0 mm | - | 0 W/m² | - |
| 1777709405 | 6.11° C | 99% | 1012 hPa | 0 mm | - | 0 W/m² | - |
| 1777709103 | 6.11° C | 99% | 1012.1 hPa | 0 mm | - | 0 W/m² | - |
| 1777708800 | 6.11° C | 99% | 1012 hPa | 0 mm | - | 0 W/m² | - |
| 1777708497 | 6.11° C | 99% | 1012 hPa | 1.78 mm | - | 0 W/m² | - |
| 1777708196 | 6.11° C | 99% | 1012 hPa | 1.78 mm | - | 0 W/m² | - |
| 1777707894 | 6.11° C | 99% | 1012.3 hPa | 0 mm | - | 0 W/m² | - |
| 1777707589 | 6.11° C | 99% | 1012.1 hPa | 1.27 mm | - | 0 W/m² | - |
| 1777707285 | 6.11° C | 99% | 1012.4 hPa | 1.27 mm | - | 0 W/m² | - |
| 1777706983 | 6.11° C | 99% | 1012.3 hPa | 1.78 mm | - | 0 W/m² | - |
| 1777706680 | 6.11° C | 99% | 1012.4 hPa | 3.56 mm | - | 0 W/m² | - |
| 1777706378 | 6.11° C | 99% | 1012.5 hPa | 3.05 mm | - | 0 W/m² | - |
| 1777706075 | 6.11° C | 99% | 1012.2 hPa | 1.27 mm | - | 0 W/m² | - |
| 1777705773 | 6.11° C | 99% | 1012.1 hPa | 1.27 mm | - | 0 W/m² | - |
| 1777705471 | 6.11° C | 99% | 1012 hPa | 0 mm | - | 0 W/m² | - |
| 1777705170 | 6.11° C | 99% | 1012.1 hPa | 1.78 mm | - | 0 W/m² | - |
| 1777704868 | 6.11° C | 99% | 1012.1 hPa | 1.78 mm | - | 0 W/m² | - |
| 1777704566 | 6.11° C | 99% | 1012.1 hPa | 0 mm | - | 0 W/m² | - |
| 1777704263 | 6.11° C | 99% | 1012.2 hPa | 0 mm | - | 0 W/m² | - |
| 1777703960 | 6.11° C | 99% | 1012.2 hPa | 1.27 mm | - | 0 W/m² | - |
| 1777703657 | 6.11° C | 99% | 1012.2 hPa | 1.27 mm | - | 0 W/m² | - |
| 1777703355 | 6.11° C | 99% | 1012.3 hPa | 0 mm | - | 0 W/m² | - |
* Rain latest hour (hover to see other rain measurements)
** Current wind speed in m/s (hover to see current wind gust speed)